Weather History for Cotulla, TX

Change the Weather History Date:

Sunday, April 28, 2013

  Actual Average Record
Temperature  
Mean Temperature 72 °F -  
Max Temperature 82 °F 86 °F 102 °F (2002)
Min Temperature 62 °F 63 °F 46 °F (1997)
Cooling Degree Days 7    
Growing Degree Days 22 (Base 50)    
Moisture  
Dew Point 62 °F    
Average Humidity 75    
Maximum Humidity 94    
Minimum Humidity 46    
Precipitation  
Precipitation 0.00 in - - ()
Sea Level Pressure  
Sea Level Pressure 29.93 in    
Wind  
Wind Speed 7 mph (ESE)    
Max Wind Speed 13 mph    
Max Gust Speed 17 mph    
Visibility 10 miles    
Events      
Averages and records for this station are not official NWS values.
T = Trace of Precipitation, MM = Missing Value Source: NWS Daily Summary

Daily Weather History Graph

Daily Weather History Graph

Search for Another Location

Airport:

Trip Planner

Search our weather history database for the weather conditions in past years. The results will help you decide how hot, cold, wet, or windy it might be!

Date:

Astronomy

Apr. 28, 2013 Rise Set
Actual Time 6:58 AM CDT 8:10 PM CDT
Civil Twilight 6:33 AM CDT 8:35 PM CDT
Nautical Twilight 6:04 AM CDT 9:04 PM CDT
Astronomical Twilight 5:34 AM CDT 9:35 PM CDT
Moon 11:33 PM CDT (4/28) 9:25 AM CDT (4/28)
Length of Visible Light 14h 01m
Length of Day
13h 11m
Waning Gibbous, 88% of the Moon is Illuminated
Apr 28
Waning Gibbous
May 2
Last Quarter
May 9
New
May 17
First Quarter
May 24
Full

Hourly Weather History & Observations

Time (CDT) Temp. Heat Index Dew Point Humidity Pressure Visibility Wind Dir Wind Speed Gust Speed Precip Events Conditions
12:53 AM 66.0 °F - 63.0 °F 90% 29.97 in 10.0 mi East 4.6 mph - N/A   Clear
1:53 AM 66.9 °F - 62.1 °F 84% 29.95 in 10.0 mi East 12.7 mph - N/A   Clear
2:53 AM 66.0 °F - 62.1 °F 87% 29.94 in 10.0 mi SE 11.5 mph 17.3 mph N/A   Clear
3:53 AM 66.0 °F - 62.1 °F 87% 29.94 in 10.0 mi SSE 8.1 mph - N/A   Clear
4:53 AM 64.9 °F - 61.0 °F 87% 29.96 in 10.0 mi ENE 4.6 mph - N/A   Clear
5:53 AM 63.0 °F - 60.1 °F 90% 29.96 in 10.0 mi NE 4.6 mph - N/A   Partly Cloudy
6:53 AM 63.0 °F - 59.0 °F 87% 29.95 in 10.0 mi ENE 5.8 mph - N/A   Clear
7:53 AM 63.0 °F - 59.0 °F 87% 29.97 in 10.0 mi ENE 6.9 mph - N/A   Clear
8:53 AM 63.0 °F - 60.1 °F 90% 29.98 in 10.0 mi East 8.1 mph - N/A   Mostly Cloudy
9:00 AM 62.6 °F - 60.8 °F 94% 30.00 in 10.0 mi East 6.9 mph - N/A   Mostly Cloudy
9:31 AM 64.4 °F - 60.8 °F 88% 30.00 in 10.0 mi ENE 9.2 mph - N/A   Scattered Clouds
9:53 AM 64.0 °F - 60.1 °F 87% 29.97 in 10.0 mi ENE 6.9 mph 16.1 mph N/A   Clear
10:53 AM 66.0 °F - 60.1 °F 81% 29.96 in 10.0 mi East 9.2 mph - N/A   Clear
11:53 AM 73.9 °F - 64.0 °F 71% 29.96 in 10.0 mi East 9.2 mph - N/A   Clear
12:53 PM 75.9 °F - 64.0 °F 67% 29.95 in 10.0 mi East 9.2 mph - N/A   Partly Cloudy
1:44 PM 75.2 °F - 62.6 °F 65% 29.95 in 10.0 mi SE 8.1 mph - N/A   Mostly Cloudy
1:53 PM 75.9 °F - 63.0 °F 64% 29.94 in 10.0 mi South 3.5 mph - N/A   Mostly Cloudy
2:53 PM 78.1 °F - 62.1 °F 58% 29.91 in 10.0 mi SE 5.8 mph - N/A   Mostly Cloudy
3:53 PM 81.0 °F 81.7 °F 61.0 °F 50% 29.86 in 10.0 mi Calm Calm - N/A   Clear
4:53 PM 82.9 °F 83.2 °F 60.1 °F 46% 29.83 in 10.0 mi West 4.6 mph - N/A   Partly Cloudy
5:53 PM 82.0 °F 82.4 °F 60.1 °F 47% 29.83 in 10.0 mi Calm Calm - N/A   Clear
6:53 PM 80.1 °F 81.2 °F 62.1 °F 54% 29.84 in 10.0 mi SE 6.9 mph - N/A   Clear
7:53 PM 78.1 °F - 63.0 °F 60% 29.86 in 10.0 mi SE 4.6 mph - N/A   Clear
8:53 PM 75.9 °F - 64.0 °F 67% 29.87 in 10.0 mi SSE 4.6 mph - N/A   Clear
9:53 PM 73.0 °F - 64.9 °F 76% 29.90 in 10.0 mi South 6.9 mph - N/A   Clear
10:53 PM 72.0 °F - 66.0 °F 81% 29.91 in 10.0 mi Calm Calm - N/A   Mostly Cloudy
11:53 PM 71.1 °F - 66.9 °F 87% 29.90 in 10.0 mi Calm Calm - N/A   Clear